Weather Roundup
Issued by NWS Chicago, IL

Home | Current Version | Previous Version | Text Only | Print | Product List | Glossary Off
Versions: 1 2 3 4 5 6 7 8 9 10 11 12 13 14 15 16 17 18 19 20 21 22 23 24 25 26 27 28 29 30 31 32 33 34 35 36 37 38 39 40 41 42 43 44 45 46 47 48 49 50

000
NZUS59 KLOT 210308
HRRLOT

CHICAGO AREA WEATHER ROUNDUP
NATIONAL WEATHER SERVICE CHICAGO/ROMEOVILLE IL
1000 PM CDT WED SEP 20 2017

NOTE: "FAIR" INDICATES FEW OR NO CLOUDS BELOW 12,000 FEET WITH NO
SIGNIFICANT WEATHER AND/OR OBSTRUCTIONS TO VISIBILITY.

* THESE STATIONS ARE NOT UNDER NWS QUALITY CONTROL. THEY ALSO MAY NOT
  REPORT WEATHER SUCH AS PRECIPITATION OR FOG.

ILZ005-006-012>014-019>023-210400-
NORTHEAST ILLINOIS

CITY           SKY/WX    TMP DP  RH WIND       PRES   REMARKS
OHARE          PTCLDY    82  66  58 SW7       29.90R HX  84
MIDWAY         PTCLDY    83  67  58 S8        29.90R HX  85
AURORA         CLOUDY    77  68  73 S6        29.91R
LANSING*       CLEAR     78  70  77 S8        29.91R HX  80
JOLIET*        CLOUDY    79  69  71 CALM      29.91R HX  82
WAUKEGAN       CLEAR     79  68  69 S8        29.89R HX  81
DUPAGE AIRPORT PTCLDY    76  68  76 S6        29.90R
WHEELING       CLEAR     83  68  60 S8        29.91R HX  86
MORRIS*        MOCLDY    77  68  73 CALM      29.90R
LEWIS AIRPORT* CLOUDY    76  68  77 S5        29.91R
NORTHERLY ISL    N/A     83  65  54 S10         N/A  HX  85
$$

WIZ051-052-058>065-066-070>072-210400-
SOUTHEAST WISCONSIN

CITY           SKY/WX    TMP DP  RH WIND       PRES   REMARKS
MILWAUKEE      CLOUDY    77  69  76 S6        29.88R
KENOSHA*       CLOUDY    77  67  71 SW5       29.90R
RACINE*        CLOUDY    73  68  84 S3        29.90R
WEST BEND        N/A     73  68  83 NW6       29.90R
$$

INZ001>003-010>013-019-020-210400-
NORTHWEST INDIANA

CITY           SKY/WX    TMP DP  RH WIND       PRES   REMARKS
GARY*          PTCLDY    82  66  57 S8        29.90R HX  85
MICHIGAN CITY* NOT AVBL
RENSSELAER*    NOT AVBL
VALPARAISO     CLEAR     77  69  76 S6        29.93R
$$

LMZ740>746-210400-
SOUTHERN LAKE MICHIGAN

STATION/POSITION TIME  SKY/WX   TEMP WIND        PRES    VSBY
                                AIR  DIR/SP/G
                 (UTC)          (F)  (DEG/KT/KT) (MB)    (MI)
HARRISON CRIB    0240            81  180/ 16/ 18   N/A
BURNHAM HARBOR   NOT AVBL
CALUMET HARBOR   0242            82  180/  6/ 10 1011.7R
BURNS HARBOR     0240            81  180/ 10/ 18 1012.9R
MICHIGAN CITY    0240            81  170/ 11/ 12   N/A
$$

ABBREVIATIONS USED IN REMARKS
   TC - TEMPERATURE IN CELSIUS
  WCI - WIND CHILL INDEX
   HX - HEAT INDEX
  VSB - VISIBILITY
$$



USA.gov is the U.S. government's official web portal to all federal, state and local government web resources and services.